Regional Weather Roundup
Issued by NWS

Home | Current Version | Previous Version | Text Only | Print | Product List | Glossary On
Versions: 1 2 3 4 5 6 7 8 9 10 11 12 13 14 15 16 17 18 19 20 21 22 23 24 25 26 27 28 29 30 31 32 33 34 35 36 37 38 39 40 41 42 43 44 45 46 47 48 49 50
000
ASUS46 KSTO 211015
RWRCA

NORTHERN AND CENTRAL CA REGIONAL WEATHER ROUNDUP
NATIONAL WEATHER SERVICE SACRAMENTO CA
300 AM PDT MON AUG 21 2017

NOTE: FAIR INDICATES FEW OR NO CLOUDS BELOW 12,000 FEET WITH NO
SIGNIFICANT WEATHER AND/OR OBSTRUCTIONS TO VISIBILITY.

CAZ001-003-211100-
NORTHWEST AREA

CITY           SKY/WX    TMP DP  RH WIND       PRES   REMARKS
CRESCENT CITY  CLOUDY    53  52  96 S6        29.94R
UKIAH          FAIR      60  56  86 S7        29.93S
$$

CAZ006-505>513-211100-
BAY AREA

CITY           SKY/WX    TMP DP  RH WIND       PRES   REMARKS
SANTA ROSA     FAIR      56  54  93 CALM      29.94S
SAN RAFAEL     N/A       63  MM  MM MISG
NAPA           CLOUDY    63  57  81 W12       29.94R
CONCORD        CLOUDY    64  58  80 W15       29.94R
OAKLAND CITY   N/A      MM  MM  MM MISG
OAKLAND        CLOUDY    63  59  87 W9        29.95S
SAN FRAN CITY  N/A       62  MM  83 MISG
SAN FRAN ARPT  FAIR      61  56  83 S5        29.94S
LIVERMORE      FAIR      61  58  90 W7        29.93S
HAYWARD        CLOUDY    64  56  75 W7        29.94S
REDWOOD CITY   N/A       64  MM  80 MISG
MOFFETT ARPT   CLOUDY    65  60  84 NE5       29.95S
SAN JOSE ARPT  CLOUDY    66  60  81 CALM      29.94S
$$
CAZ034-037-514>518-211100-
CENTRAL COAST

CITY           SKY/WX    TMP DP  RH WIND       PRES   REMARKS
WATSONVILLE    CLOUDY    63  58  83 W5        29.97S
SALINAS        CLOUDY    63  58  83 W6        29.96R
MONTEREY       CLOUDY    62  59  90 CALM      29.97R
SAN LUIS OBISP CLOUDY    64  59  83 SW5       29.96S
SANTA MARIA    CLOUDY    63  59  87 CALM      29.97S
$$
CAZ015-016-211100-
NORTHERN SACRAMENTO VALLEY

CITY           SKY/WX    TMP DP  RH WIND       PRES   REMARKS
REDDING        FAIR      74  62  66 CALM      29.85S
RED BLUFF      FAIR      74  64  71 SE5       29.87R
OROVILLE       FAIR      70  60  70 SE9       29.89R
$$
CAZ016>018-211100-
SOUTHERN SACRAMENTO VALLEY

CITY           SKY/WX    TMP DP  RH WIND       PRES   REMARKS
AUBURN         FAIR      72  68  88 E9        29.93R
LINCOLN        FAIR      64  54  68 S12       29.87R
MARYSVILLE     FAIR      66  58  75 S9        29.87R
SAC INTL ARPT  FAIR      65  57  75 SE15      29.86R
MATHER AIRPORT NOT AVBL
DOWNTOWN SAC   N/A       64  MM  MM MISG
SAC EXEC ARPT  FAIR      63  58  83 S8        29.88R
VACAVILLE      FAIR      70  55  59 SW5       29.86R
TRAVIS AFB     FAIR      62  56  81 SW28      29.85R
$$
CAZ019>021-211100-
SAN JOAQUIN VALLEY

CITY           SKY/WX    TMP DP  RH WIND       PRES   REMARKS
STOCKTON       FAIR      64  58  80 N6        29.89S
MODESTO        FAIR      67  59  75 N8        29.88S
MERCED         FAIR      69  56  62 NW8       29.87R
LEMOORE        FAIR      75  57  53 NW8       29.87S
FRESNO         FAIR      73  59  61 NW9       29.86S
HANFORD        FAIR      74  61  63 NW6       29.87R
PORTERVILLE      N/A     70  54  56 SE5       29.88S
BAKERSFIELD    FAIR      76  51  41 N3        29.88R
$$
CAZ011-012-071-211100-
NORTHERN MOUNTAINS

CITY           SKY/WX    TMP DP  RH WIND       PRES   REMARKS
YREKA          MOCLDY    64  41  42 NE5       30.04S HAZE
MOUNT SHASTA   FAIR      57  45  64 NE3       30.06S
ALTURAS        FAIR      54  39  57 CALM      30.12R
$$
CAZ011-012-071-211100-
SIERRA NEVADA MTNS

CITY           SKY/WX    TMP DP  RH WIND       PRES   REMARKS
BLUE CANYON    FAIR      68  52  56 N3        30.16R
TRUCKEE        FAIR      46  46 100 CALM      30.22S
TAHOE VLY ARPT FAIR      50  45  83 CALM      30.22S
MAMMOTH LAKES  FAIR      49  36  61 N3        30.29R
$$



USA.gov is the U.S. government's official web portal to all federal, state and local government web resources and services.